Torna al catalogo

SL-16 DEB

LostLEO
NORAD 39893·DEBRIS·🇷🇺 Russia

Lanciato Mar 26, 1993 da Baikonur Cosmodrome

Loading…

Prossimi Passaggi (prossime 24 ore)

TLE

ObsoletoSource: Space-Track

Epoca: Sep 1, 2022, 18:37 UTC

1 39893U 93016BT  22244.77588109  .00002794  00000-0  10908-2 0  9992
2 39893  70.9677 280.7013 0112453  77.2578 284.1091 14.27040030951510

Traccia SL-16 DEB in tempo reale con AllMySat

Download on the App Store